Location: Bailleul
(50.3375°N, 2.8513°E)
Time: 19:40:38
(UTC+00:00)

Terra - Pass Details

Date: 01 August 2021
Orbit: 701 x 703 km, 98.2° (Epoch: 17 September)

Event Time Altitude Azimuth Distance (km) Brightness Sun altitude
Exits shadow 21:18:42 21° 151° (SSE) 1,576 3.0 -13.7°
Maximum altitude 21:21:54 69° 72° (ENE) 757 1.9 -14.0°
Drops below altitude 10° 21:26:40 10° 350° (N) 2,185 5.4 -14.5°
Sets 21:28:56 0° 348° (NNW) 3,107 6.4 -14.7°
